Location: Coupvray
(48.8929°N, 2.7967°E)
Time: 01:29:17
(UTC+00:00)

Cosmos 1818 - Visible Passes

Search period start: 24 October 2020 00:00
Search period end: 03 November 2020 00:00
Orbit: 776 x 798 km, 65.0° (Epoch: 23 October)

Date Brightness Start Highest point End Pass type
(mag) Time Alt. Az. Time Alt. Az. Time Alt. Az.
24 Oct 4.4 17:49:13 10° WSW 17:54:28 49° NW 17:59:47 10° NNE visible
24 Oct 5.8 19:35:34 10° WNW 19:39:20 19° NNW 19:41:42 15° N visible
24 Oct 6.5 21:21:59 10° NNW 21:22:19 11° NNW 21:22:19 11° NNW visible
25 Oct 4.1 17:16:59 10° SW 17:22:21 61° NW 17:27:47 10° NE visible
25 Oct 5.7 19:02:56 10° WNW 19:07:01 21° NNW 19:10:31 12° NNE visible
25 Oct 6.2 20:49:41 10° NNW 20:51:09 13° NNW 20:51:09 13° NNW visible
26 Oct 5.5 18:30:21 10° W 18:34:43 24° NNW 18:39:05 10° NNE visible
26 Oct 6.0 20:17:17 10° NW 20:19:58 15° N 20:19:58 15° N visible
27 Oct 5.3 17:57:48 10° W 18:02:26 27° NNW 18:07:05 10° NNE visible
27 Oct 5.8 19:44:47 10° NW 19:47:52 15° N 19:48:46 14° N visible
28 Oct 5.0 17:25:19 10° W 17:30:12 32° NW 17:35:06 10° NNE visible
28 Oct 5.8 19:12:13 10° NW 19:15:27 16° N 19:17:34 13° NNE visible
28 Oct 6.4 20:57:41 10° NNW 20:58:12 12° NNW 20:58:12 12° NNW visible
29 Oct 5.8 18:39:36 10° NW 18:43:05 17° NNW 18:46:22 11° NNE visible
29 Oct 6.1 20:25:33 10° NNW 20:26:59 14° NNW 20:26:59 14° NNW visible
30 Oct 5.7 18:06:57 10° WNW 18:10:43 18° NNW 18:14:29 10° NNE visible
30 Oct 5.9 19:53:21 10° NNW 19:55:46 15° N 19:55:46 15° N visible
31 Oct 5.5 17:34:20 10° WNW 17:38:23 21° NNW 17:42:27 10° NNE visible
31 Oct 5.7 19:21:03 10° NNW 19:24:03 15° N 19:24:34 14° N visible
31 Oct 6.5 21:05:09 10° NNW 21:05:11 10° NNW 21:05:11 10° NNW visible
01 Nov 5.4 17:01:44 10° W 17:06:04 23° NNW 17:10:26 10° NNE visible
01 Nov 5.7 18:48:39 10° NW 18:51:39 15° N 18:53:21 13° NNE visible
01 Nov 6.2 20:33:09 10° NNW 20:33:58 13° NNW 20:33:58 13° NNW visible
02 Nov 5.7 18:16:09 10° NW 18:19:14 15° N 18:22:09 10° NNE visible
02 Nov 5.9 20:01:07 10° NNW 20:02:46 15° N 20:02:46 15° N visible
